Wind_Speed
9 9 9 9 9 9 9 9 8 8 8 8 8 8 8 9 10 10 10 10 9 7 7 7 7 8 8 9 9 9 8 9 9 11 12 7 9 11 9 7 6 5 4 2 5 7 6 6 8 3 3 5 4 3 3 2 2 3 2 2 1 1 2 5 7 3 4 7 7 7 7 7 6 6 5 5 9 10 10 12 12 15 18 20 23 24 25 23
10 10 11 11 11 10 10 10 10 9 9 9 8 8 8 8 9 9 10 9 9 8 7 7 7 8 9 9 10 10 10 10 11 14 11 8 11 12 10 9 8 6 4 5 7 7 6 7 7 0 4 4 2 1 1 4 4 4 2 2 1 1 4 6 11 8 1 6 8 8 8 7 7 6 4 4 9 10 12 13 14 19 22 23 25 24 23 23
11 11 12 12 12 12 11 11 11 11 11 10 9 9 8 8 8 8 9 8 8 7 7 7 7 8 9 9 11 12 12 11 14 15 8 7 10 10 11 10 8 6 3 7 8 7 7 8 4 4 3 2 2 1 1 1 2 3 2 1 1 2 7 6 7 12 8 2 7 8 8 7 6 5 4 4 8 9 10 12 13 18 21 23 24 24 23 22
11 12 12 12 12 12 12 12 12 12 12 11 11 10 9 9 8 8 8 8 8 7 7 7 8 8 9 10 11 11 13 12 11 10 6 5 8 8 10 9 9 6 2 7 9 8 8 8 4 5 5 5 2 1 2 2 0 1 1 1 1 2 5 4 3 13 9 1 3 7 7 6 6 5 5 5 5 6 8 13 14 17 21 22 23 23 22 21
11 12 12 12 12 13 12 12 12 12 12 12 12 11 11 10 9 9 9 8 8 7 7 7 7 8 9 10 11 11 11 7 2 3 4 4 5 6 10 8 8 6 2 7 9 10 10 8 4 2 4 6 2 1 4 4 2 1 2 4 3 1 1 5 9 13 4 1 2 6 5 5 6 7 6 4 2 3 7 13 16 17 19 21 21 22 21 20
11 12 12 12 13 13 13 13 13 13 13 12 12 12 12 11 10 10 9 9 8 8 7 7 7 8 9 10 12 11 7 5 3 2 3 3 5 6 8 8 7 6 4 8 10 10 9 9 7 3 6 5 2 1 6 6 5 3 1 3 7 7 4 4 12 11 1 7 5 5 8 9 6 6 5 1 0 3 8 14 17 18 18 20 20 20 20 19
11 12 12 12 12 13 13 13 13 13 13 13 12 12 12 11 11 10 10 10 9 8 7 8 7 7 9 10 13 11 10 14 10 5 4 4 5 7 9 9 7 6 7 11 11 9 8 10 9 3 12 7 5 4 6 6 8 5 3 2 6 9 7 7 10 5 5 7 5 6 9 8 4 5 2 3 2 4 9 14 16 17 18 18 18 19 19 18
12 12 12 12 12 12 13 13 13 13 13 13 13 12 12 12 11 11 10 10 10 10 8 7 7 7 8 8 11 11 14 14 10 9 7 6 4 8 10 10 7 5 7 11 11 9 9 11 10 7 10 8 3 7 8 5 7 6 4 3 3 5 6 6 5 2 7 5 6 10 9 7 5 2 3 4 3 6 9 13 15 17 17 17 17 18 18 17
13 13 13 13 13 13 13 13 13 13 13 13 13 13 12 12 12 11 10 9 10 11 9 7 7 7 7 8 9 11 10 6 8 11 8 6 3 8 10 9 6 5 8 10 9 9 9 10 9 9 3 6 5 6 6 3 3 4 5 5 4 4 5 4 2 4 7 4 7 9 2 6 6 2 5 6 3 7 9 11 15 16 17 17 16 17 17 16
14 14 14 15 14 14 14 14 14 14 14 13 13 13 12 12 12 11 10 9 10 11 10 8 7 7 6 7 9 9 5 2 6 9 7 6 4 8 8 8 7 7 11 10 9 9 9 10 8 10 9 5 8 7 5 2 3 5 5 4 5 5 4 2 1 3 6 4 7 9 4 4 5 5 4 8 7 6 10 11 14 16 16 16 16 17 16 15
15 15 15 15 15 15 15 15 14 14 14 14 13 12 12 12 11 11 10 9 9 10 10 9 8 8 7 8 12 10 2 1 6 7 7 5 5 8 8 10 10 9 11 10 9 8 9 9 9 10 8 2 9 10 8 5 5 5 5 1 5 3 3 3 3 4 6 4 7 9 3 2 4 4 4 8 8 7 10 12 14 15 15 15 16 16 15 15
16 16 16 16 16 16 16 16 15 15 15 14 13 12 12 11 11 10 10 9 9 10 10 10 9 9 8 11 19 16 3 1 5 5 7 6 6 8 8 11 12 11 10 11 11 8 8 7 9 11 9 8 3 10 7 6 5 4 3 2 3 3 4 4 4 5 5 4 8 8 3 2 3 4 4 6 8 6 7 11 13 14 14 14 15 15 15 15
17 17 17 17 17 17 16 16 16 16 15 15 13 12 11 10 10 9 9 8 8 9 10 10 10 10 8 13 22 20 9 5 6 7 9 9 8 9 10 12 12 12 11 12 13 10 8 5 8 12 12 13 3 8 9 8 6 1 1 4 2 1 3 7 6 6 6 5 9 7 1 2 6 8 4 5 8 4 4 10 12 14 14 14 15 15 14 15
18 18 17 17 17 17 17 17 16 16 16 15 14 12 10 10 9 8 8 8 8 8 9 10 10 9 9 14 18 17 15 10 7 9 11 11 11 11 12 13 12 12 12 12 12 11 10 9 10 13 12 12 7 3 9 8 6 3 4 5 2 1 2 9 8 7 6 5 9 8 1 2 6 7 5 5 6 4 5 7 8 12 14 14 15 14 14 15
19 19 18 18 18 18 18 17 16 16 16 16 14 12 10 9 8 7 7 7 7 8 8 9 10 8 11 16 14 13 16 14 11 11 12 13 13 13 13 13 13 12 12 12 11 11 10 11 11 12 13 12 9 4 5 5 3 2 3 5 3 1 5 10 9 8 6 5 9 7 1 2 3 5 7 8 8 6 7 8 9 13 14 15 15 14 14 14
19 19 19 19 19 18 18 17 17 16 16 16 14 13 11 9 8 7 6 6 7 7 7 6 7 8 10 11 9 13 17 17 17 15 14 15 15 14 13 12 12 12 12 11 11 11 10 11 12 13 14 10 8 5 5 4 1 1 3 5 4 3 4 8 8 9 8 6 8 6 2 1 3 6 8 9 11 12 13 14 14 13 11 14 15 14 13 14
19 19 19 19 19 19 18 18 17 16 16 15 14 12 10 9 7 6 5 6 6 6 6 5 3 9 12 10 8 12 17 18 19 18 17 16 16 15 13 11 12 12 12 11 11 12 11 12 12 10 10 8 7 5 3 3 0 2 5 6 6 7 4 5 9 10 10 8 6 6 4 2 3 7 9 10 15 19 19 15 13 10 10 14 14 13 14 14
19 19 19 20 20 20 19 18 17 16 16 15 14 12 10 10 9 8 7 6 5 4 6 8 5 7 11 14 15 14 14 16 17 19 20 16 16 17 14 12 12 12 12 12 13 14 12 11 10 8 8 8 6 7 4 3 5 7 8 6 6 8 3 4 8 9 11 9 5 4 5 5 5 6 8 12 18 20 17 15 14 10 10 14 15 14 15 15
20 20 20 20 20 20 19 18 17 16 16 14 13 12 10 10 10 10 8 7 8 6 5 11 16 8 7 9 17 14 11 13 15 19 21 18 17 17 13 11 12 13 12 10 10 12 11 8 8 7 7 8 8 8 6 3 8 10 8 5 3 3 3 4 9 11 11 8 5 5 5 7 7 7 8 13 20 18 14 16 15 10 10 14 15 16 15 15
21 21 20 20 20 20 19 19 17 16 16 14 13 11 8 8 7 5 7 11 15 14 13 13 22 17 14 10 11 9 8 13 15 18 20 18 18 17 14 13 14 13 11 9 9 11 10 7 8 8 8 10 8 8 8 6 9 9 6 4 3 4 3 2 9 11 9 5 4 8 6 8 10 10 10 16 22 18 14 16 15 13 13 15 16 18 18 16
22 22 21 20 19 19 19 19 17 16 16 15 13 9 8 8 6 3 2 12 18 20 23 20 18 19 18 12 5 8 8 12 15 16 17 18 18 16 14 15 13 10 10 13 12 10 10 7 8 11 12 12 11 11 11 8 8 8 6 4 4 6 3 4 5 7 5 2 5 10 8 8 10 10 10 14 16 15 15 16 16 17 16 14 15 18 20 17
23 23 22 21 20 18 18 18 17 16 15 15 12 9 8 8 8 8 8 12 17 21 24 23 21 21 19 14 6 9 10 11 14 16 17 19 19 16 14 15 12 9 10 12 11 9 9 8 9 12 13 13 15 12 5 2 3 4 5 4 5 5 2 6 6 6 5 1 3 7 7 9 11 10 11 12 12 16 20 18 16 17 17 15 14 16 20 19
22 23 22 21 20 18 17 16 15 15 14 11 10 8 8 9 9 9 9 12 16 19 23 23 24 23 21 18 11 9 12 13 13 17 20 20 21 20 16 13 11 11 11 11 10 8 7 9 11 11 11 14 16 9 3 1 4 6 6 5 4 5 6 5 8 7 6 4 2 3 4 7 12 11 11 13 12 14 20 22 20 18 17 17 16 18 21 20
22 22 22 21 20 17 15 13 11 11 11 9 9 7 9 12 10 9 11 12 13 17 23 24 25 24 23 21 15 13 15 14 14 17 21 21 21 20 16 13 12 11 11 12 13 11 10 13 13 9 10 14 13 8 5 4 6 9 9 7 5 7 10 4 9 8 7 8 5 4 6 4 12 12 10 11 12 10 13 18 20 20 21 23 22 22 23 20
20 20 20 20 19 15 12 10 6 5 9 11 12 9 7 10 8 7 10 10 10 15 21 22 22 23 23 21 17 17 15 15 16 17 22 24 21 17 14 14 12 10 12 15 14 12 12 17 16 8 7 10 6 5 8 7 6 10 11 9 6 11 12 9 14 9 6 5 6 3 5 2 11 14 11 10 11 11 11 12 14 17 22 25 21 18 22 21
19 19 19 19 18 15 9 6 2 3 9 11 9 6 5 7 6 5 6 6 7 8 12 16 18 17 20 22 20 17 12 14 18 17 21 25 21 17 13 11 10 10 12 12 10 8 9 14 13 10 10 9 5 6 9 8 7 7 5 6 11 14 12 7 9 7 3 2 7 6 5 2 5 11 14 12 11 12 11 12 14 15 18 20 17 17 21 20
19 19 19 18 17 14 9 6 6 7 9 6 2 4 5 6 5 4 4 6 6 6 10 11 12 11 15 20 21 16 8 10 17 20 22 24 22 20 14 10 10 10 10 8 7 6 9 13 12 12 12 9 8 8 8 10 9 4 3 8 13 13 7 8 10 7 4 1 5 9 6 4 2 7 14 14 13 13 12 12 14 16 18 17 17 19 20 19
19 19 19 17 14 14 12 10 9 9 8 6 4 6 6 6 5 3 5 6 2 7 9 7 7 7 9 15 22 20 12 8 12 18 23 24 21 19 14 13 11 11 11 9 7 7 9 12 12 14 12 9 9 9 9 11 9 8 7 8 10 4 1 8 10 5 4 4 5 6 5 4 3 5 13 15 13 13 14 14 13 14 17 17 18 19 18 20
18 18 19 16 12 12 12 11 11 9 9 8 8 6 6 7 5 4 5 5 2 6 7 8 9 8 9 13 20 22 17 10 9 15 24 23 21 18 13 14 15 13 13 12 10 9 9 10 11 14 11 7 9 10 12 12 9 13 10 2 7 8 5 7 7 5 6 6 4 3 1 3 4 3 9 12 9 7 10 12 11 13 16 16 18 20 22 24
18 18 18 15 9 10 11 9 9 9 10 12 10 6 6 6 5 6 6 4 3 6 8 8 10 11 13 13 15 19 18 14 10 14 23 21 20 20 16 16 15 13 11 12 12 13 15 9 6 10 9 7 9 11 14 13 10 12 9 3 5 9 6 7 5 4 6 5 5 5 5 5 4 4 5 5 7 8 9 10 10 12 15 15 16 17 23 28
17 17 17 14 8 8 10 6 4 6 7 10 7 4 6 5 5 7 5 2 2 6 9 8 10 12 15 14 12 16 16 15 13 14 17 15 16 17 14 13 11 9 9 10 10 14 16 9 4 7 11 9 10 11 13 14 9 7 6 4 6 6 5 6 3 3 6 4 5 8 7 6 3 4 3 3 9 11 8 9 10 9 12 15 16 15 17 22
15 16 16 13 9 8 8 6 6 6 5 4 5 5 7 5 6 8 5 2 2 6 6 8 11 11 15 15 12 14 15 14 13 12 12 11 11 12 12 10 7 7 8 8 9 11 12 11 9 9 11 12 11 9 10 11 8 6 4 5 6 4 3 4 3 4 6 5 6 8 6 3 3 5 3 4 10 12 7 6 13 13 11 14 17 16 15 15
14 15 13 10 8 8 8 9 11 9 4 4 6 7 7 6 6 9 8 6 3 5 1 5 11 11 12 13 12 13 14 13 14 13 12 13 11 12 15 14 12 9 7 8 9 9 9 11 13 12 10 13 13 9 7 9 9 8 6 6 7 4 3 4 4 4 5 6 8 5 1 3 5 3 3 8 9 9 10 10 13 11 6 10 13 13 17 18
13 11 9 7 6 6 6 8 9 8 4 5 7 7 8 8 7 9 9 8 5 5 3 5 8 11 11 11 11 12 13 12 14 14 12 13 11 10 13 16 17 13 9 8 7 8 9 9 12 13 10 13 15 13 11 10 9 9 8 8 8 5 4 5 4 4 5 3 2 0 3 3 4 1 6 11 9 8 12 16 16 11 7 10 10 10 18 24
10 7 6 4 3 4 6 5 5 7 7 7 8 7 8 8 8 9 6 5 7 4 5 6 6 7 9 10 11 13 12 11 14 14 11 12 11 10 11 13 17 15 10 8 6 8 11 9 12 18 14 14 15 14 14 13 8 8 8 8 9 6 4 5 7 7 6 3 1 3 5 3 3 6 7 8 8 9 9 11 16 16 12 11 11 9 11 20
6 5 6 4 0 3 5 4 4 8 9 8 7 7 8 8 8 8 5 5 8 9 4 4 6 7 9 8 9 14 14 12 13 13 10 12 13 13 13 11 15 17 12 9 6 6 9 9 8 19 16 14 14 13 15 14 7 5 7 9 8 8 6 6 8 7 7 6 3 3 5 4 5 7 7 5 4 8 7 7 10 12 9 7 8 7 6 9
3 3 6 3 3 4 5 4 3 8 10 9 7 7 8 8 11 12 7 7 7 9 9 5 4 6 8 8 8 12 14 12 12 11 9 11 12 14 15 13 14 18 16 14 9 5 6 8 4 16 13 14 15 13 15 16 12 5 6 8 8 8 8 7 5 3 4 5 2 2 3 3 3 3 6 5 5 6 6 6 6 6 7 6 5 4 3 4
3 4 6 5 6 5 6 4 4 9 10 8 8 10 10 11 15 15 10 9 8 9 9 6 4 5 8 8 7 10 12 10 10 10 9 9 9 13 16 13 14 18 19 18 11 4 6 7 6 13 10 11 14 11 12 14 17 13 7 6 8 7 6 5 4 3 4 5 3 5 6 4 2 1 5 6 6 7 7 5 4 4 4 2 1 2 3 0
5 6 5 8 7 4 4 4 5 10 9 7 8 8 9 12 16 19 14 8 8 8 7 8 8 7 9 9 6 7 12 11 9 10 9 7 7 12 15 13 12 16 18 17 11 6 7 8 4 9 9 10 11 8 9 10 14 15 11 7 6 5 4 4 4 4 6 5 4 5 5 0 5 3 2 4 6 7 7 4 3 6 6 7 3 2 2 1
7 8 4 10 7 3 4 4 6 10 8 8 8 7 10 11 14 18 12 3 5 8 7 9 10 9 10 11 9 8 9 10 11 9 8 8 8 9 13 12 11 13 16 16 12 8 6 6 4 6 8 8 7 8 9 9 10 11 9 7 5 4 5 5 4 5 6 5 4 3 1 2 3 1 1 6 8 7 6 4 2 10 12 2 4 3 5 1
8 8 4 10 7 4 5 6 7 8 7 7 9 11 11 8 11 15 8 5 4 9 10 12 12 10 10 10 9 8 6 8 10 10 8 9 9 6 8 11 12 11 14 13 11 8 6 5 6 6 6 7 8 10 12 13 12 10 9 7 7 6 6 5 4 6 5 5 4 2 1 1 3 5 4 7 6 5 4 3 4 10 10 6 2 4 5 3
9 5 5 9 7 6 7 7 7 8 8 7 10 13 10 4 8 14 10 7 9 9 10 11 12 12 10 9 10 8 7 8 8 10 9 9 10 7 8 13 15 13 11 10 10 10 7 6 7 7 6 7 10 13 13 14 13 12 11 9 8 7 6 5 5 4 3 3 2 2 1 2 4 5 7 9 5 6 7 5 8 11 7 6 6 4 4 5
11 6 4 7 7 7 8 7 7 8 8 10 13 16 14 9 8 10 9 10 10 8 9 9 9 12 10 9 11 10 8 8 8 10 9 8 11 11 11 12 13 13 9 7 9 10 8 6 7 8 6 6 10 13 14 12 12 11 9 10 10 9 8 8 8 5 3 1 3 4 1 2 6 5 8 11 9 9 7 5 7 10 8 7 8 5 5 6
15 13 4 6 6 8 9 7 7 7 6 10 12 12 15 12 10 11 10 9 8 7 8 8 8 10 9 9 12 12 10 7 7 9 9 7 8 10 14 15 12 10 9 8 7 8 8 6 6 7 6 7 9 10 12 12 10 9 9 11 12 12 12 10 8 7 3 0 4 6 0 3 4 8 7 8 10 7 4 5 8 9 8 9 9 7 5 4
14 13 8 9 9 10 9 8 9 8 8 11 12 10 12 12 10 12 12 11 12 10 8 8 8 8 8 10 10 11 13 10 7 8 9 9 8 8 12 14 14 12 11 8 8 7 6 6 6 6 7 7 6 6 7 8 8 7 10 12 11 12 13 11 7 5 3 2 3 6 4 6 4 8 7 7 9 7 2 4 9 10 11 11 9 7 4 4
10 8 5 4 5 8 11 12 12 10 8 9 9 9 10 10 9 10 10 9 10 12 10 9 9 9 9 10 10 11 12 12 10 9 9 10 8 7 11 12 14 12 2 4 4 7 5 6 8 7 9 9 4 1 3 6 8 9 12 13 11 12 13 11 8 4 2 1 2 5 7 7 7 10 9 8 9 7 5 7 9 13 16 13 10 7 4 4
9 7 7 8 7 7 8 9 8 7 8 9 6 7 10 10 9 8 5 4 6 9 11 10 10 10 9 9 10 10 11 12 12 12 12 11 9 7 12 17 13 11 7 4 8 7 6 8 11 11 13 14 10 6 7 9 10 10 13 14 13 12 11 11 9 2 6 2 2 6 8 5 6 10 10 10 10 8 8 10 9 13 17 15 12 9 7 5
9 9 10 12 7 7 7 9 10 10 12 11 7 8 11 11 10 7 4 4 7 8 8 8 8 11 13 12 9 7 9 11 11 12 13 11 11 9 10 17 10 11 8 9 11 6 6 8 10 12 14 15 15 14 12 12 12 12 13 14 14 14 13 11 11 8 8 4 2 6 7 6 8 12 13 11 11 11 10 10 10 12 15 15 13 11 8 7
14 11 13 16 12 11 13 14 14 12 11 10 8 9 11 11 11 10 7 5 6 7 8 7 7 8 9 10 9 6 7 8 7 9 8 7 11 10 8 12 11 7 7 11 9 8 7 6 9 12 12 14 16 17 15 13 13 13 13 14 15 16 17 17 16 13 10 8 6 7 7 8 9 9 10 11 12 13 14 13 12 13 17 17 15 10 6 5
15 11 14 18 15 14 16 14 11 9 8 8 7 7 9 10 9 8 8 7 6 7 8 9 10 10 9 8 8 6 7 9 7 7 9 10 9 8 7 8 6 5 10 11 9 11 9 6 9 12 11 11 14 16 16 15 14 12 12 15 15 15 15 15 14 9 6 7 8 8 6 6 6 4 5 11 10 10 15 17 14 16 19 18 16 13 10 7
15 11 12 14 12 11 13 12 9 7 5 5 6 4 6 8 8 9 9 8 8 8 9 11 12 11 9 9 8 7 12 13 12 13 14 12 10 10 9 8 8 8 8 8 8 10 9 8 10 9 9 10 11 15 17 17 16 14 13 14 15 12 9 9 8 6 7 7 7 9 7 6 7 9 8 10 9 9 14 18 16 16 16 15 16 19 18 16
18 15 14 12 10 11 12 11 10 7 4 5 7 7 8 9 10 11 9 7 7 9 10 12 12 9 8 9 8 13 16 17 17 19 18 16 16 16 14 13 12 10 8 7 7 9 9 7 8 9 8 8 11 15 15 16 15 13 11 12 14 11 9 9 9 8 9 8 8 7 7 6 8 9 8 8 10 12 14 17 19 19 16 14 14 18 20 19
Wind_Direction
351 347 345 342 341 338 333 330 326 323 318 316 318 322 333 340 348 351 347 342 342 342 326 314 312 312 319 323 318 312 305 292 282 271 261 227 207 231 234 228 225 209 221 185 181 213 222 252 277 287 94 63 35 30 70 125 246 243 245 258 215 320 324 328 343 11 136 135 134 137 130 123 122 129 158 150 114 114 108 90 94 106 114 127 133 138 142 144
345 344 342 340 340 337 335 333 329 327 322 318 313 311 314 321 332 340 344 340 336 339 331 322 313 311 313 314 317 314 306 300 286 272 261 218 215 228 221 215 213 209 218 190 190 215 233 275 289 334 83 69 33 12 134 160 199 240 236 213 177 7 295 332 353 332 265 131 133 138 136 130 135 139 154 151 125 119 107 102 106 108 114 125 133 140 143 146
337 337 336 335 336 334 334 332 330 328 325 323 317 313 306 306 312 321 333 336 333 332 329 324 315 313 310 310 314 311 314 312 290 276 268 224 229 231 215 207 205 220 235 198 204 230 260 291 254 149 88 62 359 319 163 181 214 259 269 196 74 344 297 357 2 292 284 127 138 136 129 123 128 133 133 132 122 118 116 121 122 120 126 132 137 144 146 149
326 326 326 327 327 328 329 328 328 326 324 323 319 317 309 303 299 302 314 323 329 323 321 320 315 314 310 311 308 315 325 313 287 268 255 234 243 233 215 204 204 227 241 203 226 262 278 288 248 136 105 95 43 319 89 37 185 269 338 148 26 349 302 356 311 265 268 275 145 125 126 125 111 103 116 121 110 115 128 133 133 131 135 138 142 147 150 152
323 321 319 318 318 319 321 321 322 321 321 320 318 316 312 307 298 294 295 304 316 316 314 309 310 311 307 309 303 317 326 313 321 235 232 233 238 219 210 201 208 228 219 211 243 278 283 284 271 144 122 107 93 263 92 88 114 75 95 150 179 155 294 300 275 257 230 81 72 95 71 59 80 79 87 97 96 126 131 132 135 138 141 143 147 149 151 153
328 325 321 318 315 314 313 314 315 316 317 317 317 315 311 309 301 294 287 288 297 305 309 300 304 305 305 307 300 311 304 287 338 263 284 278 211 189 197 193 208 223 210 229 250 271 285 293 275 187 110 100 217 212 98 108 100 86 156 183 192 187 191 244 259 262 126 70 45 42 34 40 69 67 58 104 143 113 125 131 137 143 146 146 149 152 153 155
336 332 328 324 319 316 313 311 311 310 312 313 313 312 310 308 304 297 286 281 281 289 300 298 299 298 302 301 298 300 270 273 277 245 323 323 205 174 182 186 205 210 207 236 254 267 287 296 294 83 108 135 212 148 106 112 117 134 172 198 199 197 208 210 228 260 62 66 41 35 34 26 52 74 8 254 153 107 125 134 139 145 148 149 152 154 154 157
343 340 335 331 326 322 317 314 311 309 309 309 310 310 309 307 304 299 290 280 274 277 285 292 295 296 299 296 299 290 264 260 243 238 294 306 213 171 176 187 200 192 208 234 254 278 292 295 317 32 112 146 154 117 129 141 137 149 149 167 205 207 233 239 228 88 75 67 51 55 37 330 307 109 228 242 132 119 130 138 143 148 151 152 156 157 156 160
344 342 339 337 333 328 323 319 315 311 308 307 307 307 307 307 303 299 293 281 272 269 272 282 288 292 294 292 292 280 263 228 207 232 268 290 226 180 180 191 199 192 218 238 254 266 287 307 339 355 22 129 105 104 148 187 121 119 121 158 204 212 231 254 254 100 98 89 81 81 61 267 286 278 217 235 202 141 145 150 148 153 156 157 159 158 158 162
341 339 338 337 335 334 330 325 321 316 312 308 307 306 306 306 303 300 294 285 273 265 264 269 276 286 288 291 280 259 245 204 234 231 240 278 223 186 182 186 201 215 225 242 255 262 288 316 338 322 321 116 124 107 140 184 103 117 112 154 197 212 228 205 186 120 118 115 117 129 193 244 306 314 221 233 239 157 155 161 155 160 159 160 162 159 163 166
339 338 336 334 334 333 332 330 327 322 316 311 308 307 305 305 303 300 295 287 274 263 260 258 266 275 272 278 264 245 210 221 253 239 228 262 229 197 179 180 202 222 233 249 252 267 287 302 319 304 315 78 130 120 127 120 104 107 85 175 194 193 240 195 175 154 139 129 132 134 138 289 312 302 226 231 231 171 168 170 162 166 163 164 164 160 166 167
337 337 335 334 332 332 332 331 330 327 322 315 311 308 306 305 303 300 295 288 275 263 258 255 258 264 271 273 250 234 245 254 225 223 210 226 231 202 182 191 209 224 241 259 258 277 290 293 305 295 312 320 155 135 131 101 96 109 87 254 199 183 238 204 185 179 160 146 154 141 79 324 263 253 239 232 221 191 182 178 169 169 168 168 164 162 169 168
331 333 334 333 332 332 331 331 331 329 325 319 316 311 307 306 304 299 294 288 275 262 255 251 253 259 272 270 246 232 246 254 204 199 195 199 209 199 202 212 218 232 246 264 275 298 318 320 300 292 303 305 296 133 131 83 48 60 225 267 209 201 228 180 181 190 172 151 167 171 4 271 233 233 232 212 213 233 216 190 180 174 171 173 168 166 172 170
325 326 328 329 330 331 331 332 331 329 327 324 320 314 310 307 304 298 291 285 273 263 255 248 251 255 261 263 254 238 230 222 209 208 202 200 205 207 215 221 226 239 248 260 276 289 297 298 291 287 278 271 281 129 125 83 26 346 311 288 213 195 175 164 175 186 173 158 179 190 233 242 225 212 196 197 206 237 232 206 198 187 174 173 173 170 174 173
321 321 322 323 324 326 328 331 330 329 327 325 323 319 312 307 306 299 288 282 269 260 251 247 248 245 259 265 262 241 217 213 227 221 210 208 211 216 214 221 232 240 248 256 269 273 277 284 279 276 272 261 260 236 117 81 9 357 325 295 282 244 161 157 170 183 175 169 188 199 214 182 208 190 169 185 201 209 239 256 234 202 178 173 177 174 175 173
319 319 319 319 319 321 324 327 329 328 327 326 326 321 314 309 308 297 285 278 264 256 245 245 257 253 267 275 251 228 221 225 233 223 216 215 214 221 214 220 234 238 247 251 262 269 270 273 269 269 278 281 261 219 122 88 327 282 248 272 296 272 179 153 168 181 168 160 183 208 250 122 213 206 159 170 206 200 211 240 231 205 187 177 175 172 173 176
317 317 317 317 316 317 319 321 325 326 326 327 324 322 317 307 300 287 276 267 252 246 228 206 252 256 251 262 247 227 225 227 227 218 216 215 214 223 215 214 231 234 241 246 252 260 260 261 263 260 252 252 259 242 159 118 264 239 237 253 237 241 263 141 166 182 170 164 178 199 215 183 191 198 170 173 205 200 196 218 224 215 208 185 174 171 174 177
315 314 314 314 315 315 315 318 321 322 325 326 324 324 315 300 291 272 249 236 224 222 233 209 207 257 244 240 241 237 230 221 217 213 211 211 212 222 218 214 228 230 234 244 242 244 247 247 251 259 247 232 235 242 229 164 185 213 225 245 227 224 249 124 155 178 179 176 185 199 192 188 174 183 193 177 191 201 193 204 215 213 209 191 175 169 178 179
312 311 312 311 312 313 313 315 317 319 321 322 322 320 308 295 286 268 238 210 195 190 237 201 191 230 287 241 227 234 237 211 205 208 205 205 208 219 222 216 226 228 231 236 225 225 233 237 238 248 256 243 229 233 247 189 193 219 229 249 279 225 210 140 140 163 185 176 182 226 186 176 179 186 203 173 182 205 196 192 206 209 210 200 178 165 178 183
310 309 309 308 309 310 311 313 315 317 318 320 322 316 300 291 279 248 205 213 221 229 256 221 194 223 279 275 219 217 222 194 196 204 201 201 205 215 220 217 225 226 232 244 224 209 214 234 238 235 244 246 246 237 230 209 207 231 260 271 290 260 235 145 127 148 185 183 204 239 201 168 177 187 194 171 177 197 194 187 197 208 211 206 190 170 176 185
308 307 306 306 307 308 309 310 312 315 315 315 315 298 282 308 322 328 231 238 241 243 255 250 223 232 262 280 223 184 188 179 193 203 198 199 204 212 210 210 226 222 221 243 248 223 209 234 243 240 251 251 252 240 220 212 213 226 256 253 248 247 202 128 114 130 167 224 221 222 210 186 183 182 180 172 174 181 190 193 193 205 210 210 202 171 170 183
308 305 304 303 303 307 308 309 312 313 314 312 304 273 264 314 332 322 310 275 261 249 246 248 246 243 248 261 229 183 195 192 200 205 198 195 200 210 204 200 223 230 217 229 249 242 216 230 245 246 259 256 251 252 239 237 261 278 273 248 258 269 182 148 162 154 154 246 219 203 209 192 183 179 171 180 187 176 185 194 195 205 204 208 212 178 174 181
310 306 305 302 301 307 307 309 314 311 313 314 299 262 258 306 319 307 298 281 275 260 243 236 238 240 237 237 217 192 214 212 206 204 196 194 200 209 211 203 216 232 227 220 229 246 234 222 223 225 245 259 263 279 337 312 266 278 266 254 255 251 250 201 165 158 166 198 245 271 258 181 173 179 169 180 191 176 183 190 193 201 198 209 215 190 184 179
313 309 306 302 299 306 309 315 326 324 327 329 317 295 275 294 306 306 293 277 277 265 247 234 229 231 229 227 212 203 223 225 216 205 193 195 203 208 217 217 216 227 234 231 229 239 258 253 239 214 216 245 258 271 276 243 249 253 237 246 270 255 260 225 146 159 186 194 195 247 267 183 165 175 167 175 185 182 190 193 195 195 194 208 210 188 186 182
316 311 307 303 300 304 312 323 343 345 327 313 315 320 291 289 296 300 296 277 267 257 244 231 224 225 221 218 212 206 221 231 227 211 191 195 204 203 215 223 220 227 228 235 241 237 249 262 269 272 247 250 253 254 253 235 245 253 225 206 227 259 252 162 146 173 210 201 173 209 277 184 160 173 170 167 179 185 190 199 207 201 196 203 202 184 185 187
319 313 308 304 302 303 310 319 276 272 306 296 296 316 298 292 294 288 288 274 265 244 212 201 204 209 206 206 205 204 220 230 227 217 190 192 207 208 212 219 221 237 233 231 244 247 248 253 261 266 262 266 260 252 252 237 242 262 255 208 203 236 249 184 180 224 256 163 159 188 270 271 166 167 168 169 180 185 185 198 206 205 205 202 192 180 184 190
319 314 309 307 307 304 299 287 255 261 303 320 324 328 319 294 282 281 272 267 255 193 155 162 177 182 195 198 190 191 219 212 209 217 196 185 204 216 222 222 213 233 250 251 240 235 247 247 248 247 245 249 248 249 243 239 251 244 270 272 229 215 238 253 257 275 318 25 172 193 221 274 295 153 162 171 182 185 189 202 200 200 207 201 193 188 185 192
317 311 308 307 308 305 297 288 272 255 281 318 319 308 313 294 277 272 266 273 227 148 141 148 163 172 199 195 184 194 225 199 186 208 196 184 197 210 223 235 230 225 225 241 253 236 230 232 242 246 239 235 238 246 233 227 258 257 234 273 275 252 249 262 269 288 282 266 234 210 193 246 282 164 168 174 184 191 191 196 197 201 203 195 197 197 188 193
313 306 304 306 307 302 294 289 278 255 249 275 287 288 295 290 276 258 256 265 169 145 146 156 166 180 199 191 185 202 225 220 197 193 183 182 198 211 225 233 245 252 226 221 244 254 244 225 231 242 239 233 235 248 239 215 224 253 251 319 321 309 310 275 272 284 271 258 267 292 191 250 274 208 191 185 181 179 180 189 190 199 204 202 203 193 184 198
311 302 296 300 306 294 291 295 289 276 255 256 265 274 279 270 253 242 232 239 211 153 128 145 170 182 192 190 188 203 220 228 219 185 174 179 196 214 232 228 236 260 248 229 232 250 263 254 233 247 248 236 234 246 253 241 226 249 274 343 281 265 259 257 263 303 299 280 270 260 221 231 257 245 234 195 154 138 155 177 180 194 202 207 218 200 185 195
306 296 289 293 293 274 281 294 292 296 275 257 258 256 253 239 237 245 218 246 268 144 134 163 175 177 189 197 197 199 212 230 221 180 172 182 192 205 224 227 225 243 251 242 230 236 252 255 226 247 255 246 238 235 243 253 251 251 273 279 251 239 228 246 247 268 270 260 285 279 242 225 245 267 264 145 130 128 144 165 165 195 213 206 218 220 203 198
302 290 285 285 278 259 255 228 222 271 279 239 224 221 233 224 225 240 234 279 255 167 190 198 173 175 194 201 209 199 200 224 217 183 180 193 192 199 212 218 209 216 234 237 227 224 232 237 220 221 236 239 242 235 226 238 241 234 247 255 255 225 197 255 253 249 263 258 273 286 288 280 274 267 247 114 107 120 142 162 159 183 219 210 208 213 216 219
301 290 286 278 268 258 246 224 229 260 267 199 214 220 231 235 226 232 240 253 200 137 204 211 171 180 200 202 213 202 195 213 207 188 193 199 198 203 209 218 220 218 228 232 230 220 213 222 220 215 214 216 231 239 221 218 212 213 225 236 251 233 200 244 244 243 258 257 256 244 196 257 254 258 88 82 82 120 147 146 152 175 204 190 200 211 210 223
307 301 295 277 263 254 236 226 230 240 216 203 225 223 225 240 249 245 242 252 243 169 180 226 190 186 197 208 218 200 194 217 210 191 194 200 208 211 204 216 224 228 241 241 242 237 227 220 208 209 202 190 211 234 236 228 204 200 220 230 243 247 226 235 234 240 236 231 292 167 169 245 257 227 109 112 107 107 122 134 150 174 183 171 194 222 201 201
324 330 316 285 256 238 210 205 215 202 190 210 227 226 224 231 245 249 253 291 296 271 194 206 211 211 208 208 219 210 198 216 214 202 203 205 213 220 210 211 215 224 243 237 236 240 243 246 199 194 198 186 197 223 237 244 219 185 204 225 236 232 211 234 248 263 269 233 173 192 216 234 200 178 151 135 129 114 117 140 152 164 178 185 198 221 205 190
343 352 329 336 334 226 191 184 199 183 192 222 227 228 233 239 252 261 291 331 325 330 324 200 200 231 230 206 214 215 202 206 211 205 207 210 218 224 221 215 205 211 228 234 244 234 240 271 196 177 191 192 192 209 223 239 241 178 191 215 236 237 217 234 244 249 271 264 210 198 218 202 182 168 134 109 126 132 142 164 155 156 173 197 201 204 235 217
325 275 295 298 180 213 196 192 194 182 202 232 237 240 245 250 259 269 305 340 328 318 305 267 207 232 240 221 215 208 196 198 206 206 207 208 218 223 221 225 210 206 216 231 253 257 259 298 140 157 188 193 186 204 217 230 242 227 204 201 216 244 241 248 263 251 260 268 276 299 262 220 203 164 135 135 143 139 148 159 153 164 188 205 208 180 203 262
314 267 266 215 195 224 219 204 186 189 207 231 243 256 265 268 271 282 319 348 327 302 290 279 256 249 256 243 220 202 195 197 203 208 216 212 212 212 216 227 216 204 210 222 239 261 269 283 149 158 200 187 173 201 217 221 232 240 249 211 197 224 238 247 283 290 252 244 242 254 255 263 315 138 170 172 156 148 144 143 155 179 216 235 159 102 85 225
322 296 241 188 191 222 210 190 184 195 211 233 237 246 258 264 270 276 287 298 290 291 288 280 275 268 271 271 260 219 204 209 215 207 207 215 206 197 205 220 215 203 204 212 229 247 253 266 195 174 203 181 164 199 215 203 219 237 256 250 225 229 234 221 215 241 257 249 232 224 211 238 12 1 230 159 136 139 129 148 187 117 66 9 16 108 89 197
306 289 196 160 176 187 169 177 197 206 220 238 244 254 258 264 269 268 275 316 293 285 276 273 276 278 281 281 279 262 225 217 226 217 199 204 203 190 199 214 217 206 200 203 222 237 232 254 242 188 194 191 176 199 214 200 199 220 238 245 249 251 255 248 199 206 255 269 258 256 210 110 74 38 311 80 107 142 143 180 195 104 111 194 254 116 107 181
297 278 154 151 179 174 170 193 209 223 235 236 247 258 260 282 295 286 311 28 296 278 279 281 281 283 294 293 283 279 261 235 228 227 218 206 206 204 206 217 223 212 198 197 213 229 230 245 247 215 195 205 199 198 215 219 206 200 209 223 233 233 239 247 211 201 233 256 239 208 203 147 133 164 149 95 115 149 121 118 96 96 122 167 166 97 115 172
293 278 125 155 188 180 197 223 227 231 240 243 253 258 257 286 294 285 298 300 275 267 267 273 277 278 287 293 294 301 294 270 238 226 224 210 207 204 191 207 222 219 201 197 207 216 225 244 252 245 224 214 204 192 205 231 234 220 209 208 219 234 239 237 236 211 212 287 325 107 155 158 144 156 140 122 110 88 79 79 91 91 89 81 87 109 130 153
306 319 104 161 202 205 218 247 246 233 238 246 252 257 260 269 276 274 276 273 272 268 260 261 266 267 269 276 283 293 295 286 263 243 234 217 213 206 184 193 219 224 211 203 204 200 206 237 257 255 245 230 217 197 190 213 240 240 221 210 213 220 223 237 265 256 202 321 39 72 327 161 120 86 95 111 105 97 117 149 112 103 108 91 87 108 122 143
313 309 267 180 194 215 228 251 253 250 265 262 261 272 276 273 271 272 274 271 267 264 259 257 254 254 258 265 269 277 285 281 264 261 263 253 234 215 198 193 202 221 222 206 194 186 189 212 244 249 239 234 230 210 183 189 220 237 230 226 224 219 211 216 249 264 241 47 97 107 174 255 105 79 87 113 107 92 103 132 117 115 123 110 95 106 127 141
307 296 258 197 186 208 233 263 277 292 308 290 283 294 290 279 267 259 259 266 274 280 280 276 281 277 267 264 261 263 273 274 264 262 262 266 269 248 227 204 187 205 230 212 187 188 195 199 211 235 236 229 226 207 181 185 204 226 244 245 239 234 231 226 228 232 213 187 142 123 169 236 180 124 133 134 116 105 101 134 133 132 128 118 108 114 142 149
302 305 300 241 217 223 236 254 266 268 286 300 293 289 289 290 295 281 259 249 262 280 286 283 288 289 277 276 269 256 259 261 259 263 262 262 263 252 254 238 198 189 276 1 189 206 231 214 201 221 243 251 269 245 202 219 207 209 234 243 238 235 240 251 259 241 156 138 137 140 170 194 176 156 155 148 138 139 172 173 143 128 127 120 110 114 138 142
307 322 357 352 319 288 263 265 281 288 303 320 313 295 295 294 300 299 274 250 267 279 274 261 266 276 272 272 270 263 263 255 245 253 261 268 273 252 248 249 216 144 86 321 242 228 251 231 206 210 231 251 271 261 236 249 241 218 218 225 234 238 232 246 261 185 113 105 202 165 171 169 158 163 161 161 165 165 172 172 141 119 123 125 125 133 140 132
340 325 353 4 333 295 305 318 333 330 310 308 306 297 297 292 287 286 272 276 291 296 284 255 251 266 264 265 272 275 272 259 246 249 248 254 274 271 250 249 227 117 115 241 242 240 255 243 222 218 222 232 248 248 236 247 256 244 228 217 219 228 221 225 243 209 155 173 192 145 162 172 162 170 175 173 176 179 171 161 142 119 113 120 132 141 147 153
359 335 342 353 334 302 303 305 312 313 297 292 294 289 288 283 280 289 299 300 289 292 300 289 274 276 275 281 293 291 279 277 271 269 272 288 292 288 272 251 228 174 203 237 238 238 239 239 239 242 237 224 229 239 236 238 248 248 245 234 222 225 219 206 213 214 184 166 154 146 181 192 173 181 185 166 167 177 160 145 146 131 117 124 134 128 122 142
4 349 337 337 327 310 306 300 301 302 291 284 278 280 292 290 296 316 320 314 298 286 301 306 298 309 326 313 291 297 324 332 329 314 324 337 316 298 294 280 263 245 243 235 227 227 222 224 239 251 261 243 230 234 234 236 245 242 244 248 239 234 229 213 207 206 190 185 172 155 182 198 153 135 150 141 149 171 153 144 146 131 123 133 139 129 132 166
359 344 329 322 313 309 310 303 292 288 299 307 297 312 328 313 320 330 315 306 309 300 305 308 299 307 317 295 291 336 344 333 326 321 320 319 308 303 301 301 319 317 277 248 231 221 213 225 237 241 255 254 245 241 232 230 238 238 236 247 245 234 227 234 233 195 182 212 192 160 181 202 143 127 138 134 122 125 133 134 131 127 131 140 140 143 154 172
355 347 336 322 299 294 299 289 281 288 325 342 320 315 323 318 318 315 298 290 303 304 314 316 308 309 299 283 315 346 334 322 317 311 307 299 291 289 289 289 294 296 289 281 257 227 210 214 235 240 241 246 249 250 241 230 231 233 225 234 248 240 214 226 239 201 179 202 209 193 193 171 134 136 158 151 127 124 134 134 128 133 147 148 141 150 157 161
Height
1521 1521 1520 1519 1519 1518 1517 1517 1516 1516 1515 1514 1514 1513 1513 1512 1511 1510 1509 1508 1508 1507 1507 1506 1505 1505 1504 1503 1503 1502 1502 1501 1501 1500 1499 1498 1499 1499 1499 1500 1500 1500 1501 1501 1502 1504 1504 1503 1503 1504 1505 1505 1504 1505 1506 1506 1506 1507 1508 1512 1514 1513 1509 1504 1500 1496 1494 1493 1491 1491 1492 1494 1496 1495 1493 1491 1491 1492 1493 1495 1496 1498 1500 1503 1505 1509 1511 1513
1521 1521 1520 1519 1518 1518 1517 1516 1516 1515 1515 1514 1514 1513 1513 1512 1511 1510 1509 1509 1508 1507 1507 1506 1505 1505 1504 1503 1502 1502 1501 1500 1500 1498 1496 1497 1497 1498 1498 1499 1500 1500 1500 1501 1502 1503 1503 1501 1502 1504 1504 1504 1505 1506 1507 1507 1507 1507 1508 1510 1512 1511 1506 1502 1501 1495 1492 1493 1491 1492 1492 1494 1495 1494 1493 1493 1492 1492 1495 1498 1499 1500 1502 1505 1507 1510 1512 1514
1521 1520 1519 1519 1518 1517 1517 1516 1515 1515 1514 1514 1513 1513 1512 1512 1511 1510 1510 1509 1508 1507 1507 1506 1505 1504 1504 1503 1502 1501 1500 1500 1498 1495 1494 1495 1496 1497 1498 1499 1499 1500 1499 1500 1501 1502 1502 1500 1501 1502 1502 1504 1505 1506 1507 1506 1506 1505 1507 1510 1510 1507 1504 1502 1502 1499 1496 1493 1491 1492 1493 1494 1495 1494 1494 1494 1493 1493 1496 1499 1500 1501 1504 1506 1508 1510 1512 1514
1521 1520 1519 1518 1518 1517 1516 1515 1515 1514 1513 1513 1512 1512 1511 1511 1511 1510 1509 1509 1508 1507 1506 1506 1505 1504 1504 1503 1502 1501 1500 1499 1496 1493 1493 1494 1495 1496 1497 1498 1499 1499 1499 1500 1501 1501 1500 1499 1500 1500 1501 1504 1505 1506 1505 1505 1506 1505 1506 1510 1508 1505 1506 1504 1504 1506 1501 1495 1493 1493 1494 1495 1495 1496 1496 1495 1498 1498 1496 1498 1500 1502 1505 1507 1509 1510 1512 1514
1521 1520 1519 1518 1518 1517 1516 1515 1514 1514 1513 1512 1512 1511 1511 1510 1510 1509 1509 1508 1508 1507 1506 1506 1505 1505 1504 1503 1503 1501 1501 1501 1495 1492 1493 1494 1495 1495 1496 1498 1498 1499 1499 1500 1501 1501 1499 1498 1498 1498 1501 1503 1505 1505 1504 1504 1505 1506 1506 1508 1507 1505 1506 1504 1504 1506 1503 1498 1496 1495 1498 1499 1497 1498 1499 1498 1502 1500 1495 1497 1501 1503 1505 1507 1509 1510 1512 1514
1520 1519 1519 1518 1517 1516 1515 1515 1514 1513 1512 1512 1511 1510 1510 1509 1509 1508 1508 1508 1507 1507 1506 1506 1505 1505 1504 1503 1502 1501 1503 1501 1494 1493 1494 1494 1495 1495 1496 1497 1498 1499 1499 1500 1501 1501 1498 1496 1494 1495 1501 1503 1504 1505 1504 1503 1505 1509 1509 1505 1505 1505 1504 1505 1504 1503 1501 1500 1499 1499 1501 1501 1500 1502 1501 1501 1501 1498 1496 1499 1501 1504 1506 1508 1509 1510 1512 1514
1520 1519 1518 1517 1516 1515 1515 1514 1513 1512 1512 1511 1510 1510 1509 1509 1508 1508 1507 1507 1507 1506 1506 1505 1505 1504 1504 1503 1501 1501 1500 1496 1493 1493 1493 1494 1495 1495 1496 1497 1498 1498 1499 1500 1500 1499 1496 1494 1490 1490 1500 1505 1504 1503 1503 1503 1504 1509 1511 1506 1504 1505 1504 1506 1506 1503 1501 1502 1503 1503 1504 1504 1504 1505 1504 1502 1500 1498 1499 1500 1502 1505 1506 1508 1509 1510 1512 1514
1519 1518 1517 1516 1515 1515 1514 1513 1512 1512 1511 1510 1510 1509 1508 1508 1507 1507 1506 1506 1506 1506 1506 1505 1505 1504 1504 1503 1502 1500 1498 1493 1492 1493 1493 1494 1494 1495 1496 1496 1497 1498 1498 1499 1499 1498 1495 1492 1487 1487 1497 1501 1499 1500 1501 1503 1503 1505 1508 1506 1503 1504 1504 1505 1504 1503 1504 1505 1506 1507 1507 1509 1508 1505 1505 1502 1500 1500 1500 1501 1503 1505 1507 1508 1509 1510 1512 1513
1519 1518 1516 1516 1515 1514 1513 1512 1511 1511 1510 1509 1509 1508 1508 1507 1507 1506 1506 1505 1505 1505 1505 1505 1504 1504 1503 1502 1502 1501 1495 1491 1491 1492 1492 1493 1494 1495 1495 1496 1497 1497 1498 1498 1498 1497 1495 1492 1488 1488 1492 1494 1495 1497 1497 1501 1504 1502 1502 1504 1502 1503 1502 1503 1503 1503 1506 1507 1510 1511 1510 1511 1508 1506 1505 1502 1501 1502 1502 1503 1504 1505 1507 1508 1509 1511 1512 1513
1518 1517 1516 1515 1514 1513 1512 1511 1511 1510 1509 1508 1508 1507 1507 1506 1506 1505 1505 1504 1504 1504 1504 1504 1504 1504 1503 1502 1502 1500 1494 1491 1491 1491 1492 1493 1493 1494 1495 1496 1497 1497 1497 1498 1497 1495 1494 1492 1491 1491 1489 1490 1493 1495 1495 1499 1501 1499 1500 1502 1501 1502 1501 1502 1503 1503 1506 1507 1509 1510 1509 1507 1506 1508 1507 1503 1502 1503 1503 1503 1504 1506 1507 1508 1509 1511 1512 1513
1518 1517 1515 1514 1513 1512 1511 1510 1510 1509 1508 1507 1507 1506 1506 1505 1505 1504 1504 1504 1503 1503 1503 1503 1503 1503 1503 1502 1501 1497 1493 1492 1491 1491 1492 1492 1493 1494 1494 1496 1497 1497 1497 1496 1495 1495 1494 1493 1493 1491 1489 1489 1491 1493 1494 1496 1497 1498 1500 1502 1501 1501 1502 1501 1502 1503 1504 1506 1507 1506 1507 1507 1506 1509 1507 1503 1503 1503 1504 1503 1504 1506 1506 1508 1509 1511 1512 1513
1517 1516 1515 1514 1513 1511 1511 1510 1509 1508 1507 1506 1506 1505 1505 1504 1504 1503 1503 1503 1502 1502 1502 1502 1503 1502 1502 1501 1497 1493 1492 1494 1492 1491 1492 1491 1492 1493 1494 1496 1497 1497 1496 1495 1494 1493 1492 1493 1493 1492 1490 1487 1488 1493 1497 1495 1498 1499 1500 1504 1502 1501 1503 1502 1502 1503 1503 1506 1506 1505 1510 1511 1509 1508 1505 1504 1505 1504 1505 1504 1504 1506 1507 1508 1509 1511 1512 1513
1517 1516 1515 1513 1512 1511 1510 1509 1508 1507 1506 1505 1504 1504 1504 1503 1503 1502 1502 1502 1502 1501 1501 1502 1502 1502 1502 1498 1492 1491 1493 1493 1493 1492 1492 1492 1493 1494 1494 1496 1496 1496 1496 1495 1494 1493 1493 1494 1494 1493 1490 1487 1485 1490 1495 1495 1500 1502 1500 1502 1504 1508 1509 1501 1501 1502 1502 1506 1503 1506 1519 1518 1508 1505 1504 1505 1506 1506 1506 1505 1505 1506 1506 1508 1509 1511 1512 1513
1516 1515 1514 1513 1511 1510 1509 1508 1507 1506 1505 1504 1503 1503 1502 1502 1502 1501 1501 1501 1501 1501 1501 1501 1501 1501 1501 1494 1489 1491 1492 1492 1493 1492 1492 1493 1493 1494 1495 1495 1496 1496 1496 1495 1494 1494 1494 1494 1494 1492 1490 1489 1484 1486 1493 1497 1501 1503 1505 1502 1502 1515 1515 1500 1499 1502 1503 1506 1501 1507 1524 1520 1506 1503 1505 1506 1507 1507 1508 1507 1508 1507 1506 1508 1509 1510 1512 1513
1516 1514 1513 1512 1511 1510 1509 1508 1506 1505 1504 1503 1502 1502 1501 1501 1500 1500 1500 1500 1500 1500 1500 1500 1500 1500 1499 1492 1488 1489 1489 1491 1491 1491 1492 1492 1493 1493 1493 1494 1495 1495 1495 1495 1495 1494 1494 1494 1493 1491 1487 1485 1483 1488 1498 1503 1502 1504 1514 1512 1501 1508 1512 1501 1497 1499 1503 1504 1500 1507 1520 1516 1506 1503 1504 1506 1508 1510 1510 1510 1510 1508 1505 1507 1509 1510 1512 1513
1515 1514 1513 1511 1510 1509 1508 1507 1506 1504 1503 1502 1501 1500 1500 1500 1499 1499 1499 1498 1499 1499 1499 1500 1500 1500 1498 1491 1487 1487 1488 1489 1489 1490 1491 1491 1492 1492 1492 1494 1494 1494 1494 1494 1494 1493 1494 1493 1491 1489 1487 1484 1483 1488 1500 1510 1511 1509 1514 1515 1505 1503 1505 1504 1500 1494 1498 1502 1501 1506 1512 1513 1506 1502 1504 1507 1509 1510 1512 1512 1509 1508 1506 1505 1508 1509 1511 1514
1514 1513 1512 1511 1509 1508 1507 1506 1505 1503 1502 1501 1500 1499 1499 1498 1498 1498 1498 1498 1498 1498 1499 1499 1499 1500 1495 1488 1486 1485 1485 1486 1486 1488 1489 1490 1491 1490 1491 1492 1493 1494 1493 1493 1494 1492 1492 1491 1489 1488 1485 1484 1482 1485 1503 1521 1521 1513 1510 1509 1507 1502 1498 1503 1505 1496 1495 1500 1502 1503 1506 1509 1504 1500 1504 1507 1509 1510 1511 1512 1508 1507 1507 1505 1507 1509 1511 1513
1513 1512 1511 1510 1508 1507 1506 1505 1504 1503 1502 1500 1499 1498 1498 1497 1496 1496 1496 1497 1497 1498 1499 1497 1499 1501 1492 1483 1483 1482 1482 1483 1484 1485 1487 1488 1489 1489 1490 1490 1491 1492 1491 1491 1491 1490 1490 1487 1486 1487 1484 1483 1482 1485 1502 1515 1513 1511 1509 1506 1503 1499 1495 1500 1504 1497 1494 1500 1503 1503 1505 1506 1502 1500 1502 1505 1508 1508 1507 1508 1507 1507 1507 1505 1506 1508 1510 1511
1512 1511 1510 1508 1507 1506 1505 1504 1503 1502 1501 1500 1499 1497 1496 1495 1495 1494 1495 1496 1496 1496 1495 1492 1493 1494 1485 1478 1479 1480 1479 1481 1482 1483 1485 1486 1488 1489 1488 1490 1490 1489 1490 1490 1488 1486 1487 1486 1487 1492 1490 1484 1481 1481 1489 1493 1494 1499 1498 1496 1496 1497 1494 1492 1494 1491 1491 1499 1504 1503 1504 1504 1502 1501 1500 1502 1504 1505 1506 1505 1505 1507 1506 1505 1505 1507 1510 1510
1510 1509 1508 1507 1506 1505 1504 1503 1502 1501 1500 1499 1498 1496 1495 1494 1492 1492 1493 1494 1492 1490 1487 1485 1485 1483 1479 1476 1476 1478 1478 1479 1481 1481 1483 1485 1487 1487 1487 1489 1488 1487 1488 1487 1486 1481 1482 1489 1491 1490 1487 1479 1474 1473 1475 1477 1481 1487 1488 1490 1493 1494 1492 1486 1487 1486 1484 1496 1502 1498 1500 1501 1500 1499 1497 1499 1502 1503 1506 1505 1504 1506 1505 1504 1505 1506 1509 1510
1509 1508 1507 1506 1505 1504 1503 1502 1501 1501 1499 1498 1497 1497 1495 1493 1492 1492 1492 1490 1487 1485 1483 1482 1483 1481 1478 1476 1475 1476 1477 1478 1480 1481 1482 1484 1485 1486 1486 1486 1486 1487 1486 1483 1482 1477 1480 1491 1489 1481 1475 1471 1468 1465 1466 1470 1475 1481 1484 1489 1491 1489 1487 1482 1484 1483 1480 1492 1498 1495 1499 1500 1496 1496 1494 1496 1500 1501 1502 1503 1503 1504 1504 1504 1504 1505 1508 1510
1508 1506 1505 1504 1503 1503 1502 1501 1501 1500 1499 1497 1496 1496 1494 1494 1494 1493 1492 1488 1483 1482 1481 1480 1481 1479 1477 1477 1475 1476 1477 1477 1478 1479 1481 1482 1484 1484 1482 1483 1486 1486 1481 1480 1483 1482 1484 1487 1480 1472 1467 1465 1464 1461 1463 1469 1474 1480 1482 1486 1490 1485 1482 1481 1481 1480 1480 1489 1494 1491 1495 1497 1493 1492 1492 1493 1495 1497 1499 1500 1501 1502 1503 1503 1504 1504 1506 1509
1507 1504 1504 1503 1501 1502 1501 1500 1500 1498 1498 1497 1495 1495 1494 1494 1494 1494 1493 1488 1481 1477 1477 1476 1476 1475 1475 1475 1475 1476 1476 1474 1476 1476 1478 1480 1480 1481 1480 1480 1484 1483 1480 1481 1485 1488 1487 1479 1468 1464 1464 1466 1466 1463 1466 1473 1477 1481 1482 1485 1488 1481 1481 1486 1484 1481 1481 1484 1488 1487 1489 1492 1493 1491 1490 1491 1491 1492 1496 1497 1499 1501 1501 1503 1504 1505 1505 1507
1505 1503 1503 1500 1500 1501 1499 1499 1499 1497 1497 1495 1494 1494 1494 1495 1494 1493 1492 1487 1479 1472 1470 1470 1470 1471 1471 1471 1473 1474 1474 1473 1472 1472 1476 1478 1477 1479 1479 1476 1480 1483 1480 1477 1479 1483 1481 1467 1456 1457 1462 1466 1468 1468 1471 1479 1482 1480 1477 1480 1483 1478 1477 1480 1481 1483 1482 1481 1482 1486 1492 1492 1492 1494 1491 1489 1489 1490 1492 1494 1496 1498 1499 1502 1505 1504 1504 1505
1503 1502 1501 1499 1499 1499 1498 1499 1497 1497 1497 1494 1494 1493 1494 1495 1493 1493 1491 1487 1479 1465 1462 1465 1465 1465 1466 1469 1471 1470 1472 1471 1469 1470 1472 1474 1476 1477 1476 1474 1478 1481 1479 1476 1476 1479 1475 1462 1455 1460 1463 1464 1469 1473 1473 1477 1483 1479 1469 1469 1474 1475 1471 1472 1477 1481 1486 1489 1483 1485 1501 1498 1488 1492 1492 1487 1489 1490 1490 1491 1492 1495 1497 1500 1503 1503 1503 1504
1502 1501 1499 1498 1498 1497 1498 1497 1496 1498 1495 1495 1495 1493 1495 1494 1492 1494 1491 1490 1481 1460 1456 1460 1459 1460 1461 1464 1467 1469 1473 1470 1466 1468 1468 1472 1474 1473 1475 1474 1473 1475 1473 1470 1472 1473 1467 1459 1458 1464 1467 1467 1472 1476 1472 1471 1481 1482 1465 1458 1464 1468 1467 1467 1470 1475 1484 1489 1480 1480 1500 1501 1486 1488 1489 1486 1489 1489 1489 1490 1490 1492 1494 1495 1498 1501 1502 1503
1501 1499 1497 1497 1496 1496 1497 1496 1496 1497 1494 1496 1495 1494 1496 1492 1493 1493 1492 1497 1482 1453 1452 1458 1456 1457 1457 1459 1463 1469 1475 1467 1463 1465 1464 1469 1473 1471 1474 1473 1471 1473 1466 1468 1477 1472 1463 1462 1462 1464 1467 1471 1475 1476 1469 1466 1477 1478 1461 1455 1460 1461 1465 1467 1467 1472 1474 1477 1477 1474 1485 1496 1493 1491 1487 1484 1488 1489 1489 1489 1487 1488 1490 1491 1495 1498 1500 1501
1500 1498 1496 1496 1496 1495 1495 1494 1495 1494 1495 1495 1493 1495 1495 1492 1494 1491 1496 1505 1476 1443 1449 1455 1454 1456 1456 1458 1461 1463 1464 1459 1462 1464 1461 1467 1470 1469 1472 1470 1468 1469 1462 1471 1484 1470 1458 1464 1466 1464 1469 1472 1473 1470 1463 1464 1473 1468 1455 1454 1456 1456 1463 1466 1468 1473 1472 1477 1487 1476 1475 1496 1502 1491 1484 1482 1486 1489 1488 1486 1485 1485 1486 1488 1492 1495 1496 1499
1498 1496 1495 1494 1495 1494 1493 1494 1493 1492 1494 1492 1492 1495 1492 1493 1495 1489 1500 1501 1464 1440 1449 1452 1454 1457 1455 1456 1459 1459 1458 1456 1458 1459 1458 1465 1468 1467 1470 1467 1465 1465 1460 1466 1476 1466 1455 1457 1458 1460 1467 1467 1465 1461 1456 1461 1468 1459 1450 1454 1458 1459 1464 1467 1470 1473 1474 1483 1491 1480 1477 1496 1502 1488 1481 1482 1484 1487 1486 1482 1482 1483 1484 1486 1489 1492 1494 1497
1496 1494 1493 1493 1493 1493 1492 1492 1491 1491 1491 1491 1492 1493 1492 1495 1493 1495 1508 1491 1453 1443 1449 1450 1454 1454 1454 1457 1459 1459 1458 1455 1453 1453 1457 1463 1466 1467 1467 1465 1464 1465 1463 1461 1465 1463 1454 1452 1453 1456 1459 1459 1459 1458 1454 1455 1456 1452 1452 1461 1467 1468 1467 1470 1471 1473 1486 1495 1489 1479 1476 1489 1501 1490 1475 1474 1476 1479 1480 1480 1481 1481 1483 1485 1486 1488 1491 1495
1494 1492 1491 1491 1492 1492 1491 1491 1491 1490 1490 1491 1491 1492 1493 1493 1491 1501 1500 1467 1446 1450 1449 1450 1452 1449 1453 1458 1459 1459 1458 1455 1450 1451 1459 1461 1464 1467 1467 1468 1467 1469 1472 1467 1465 1461 1456 1458 1458 1455 1454 1453 1457 1460 1455 1451 1451 1455 1462 1469 1476 1476 1473 1478 1478 1482 1502 1505 1486 1474 1467 1478 1498 1490 1470 1465 1467 1471 1476 1479 1481 1482 1482 1484 1486 1487 1488 1491
1492 1490 1489 1489 1490 1490 1490 1490 1490 1490 1490 1490 1491 1492 1493 1494 1495 1497 1479 1453 1453 1456 1445 1445 1447 1447 1452 1455 1456 1456 1457 1457 1449 1450 1458 1461 1464 1466 1467 1469 1469 1477 1482 1474 1468 1465 1461 1460 1456 1455 1455 1454 1460 1465 1462 1457 1456 1462 1469 1475 1485 1488 1492 1501 1499 1498 1506 1499 1482 1474 1473 1482 1491 1479 1465 1464 1466 1469 1473 1475 1478 1480 1481 1483 1485 1486 1487 1488
1490 1488 1487 1488 1488 1488 1488 1489 1489 1490 1490 1490 1492 1491 1492 1499 1495 1481 1466 1457 1455 1447 1438 1439 1441 1445 1451 1454 1455 1452 1454 1456 1449 1450 1456 1457 1463 1464 1463 1462 1460 1470 1477 1470 1468 1468 1466 1460 1453 1456 1457 1453 1459 1467 1470 1467 1463 1468 1473 1480 1489 1492 1507 1520 1513 1507 1505 1493 1477 1470 1478 1490 1487 1471 1462 1464 1466 1467 1469 1472 1476 1477 1479 1481 1482 1484 1486 1487
1488 1486 1486 1486 1486 1486 1487 1487 1488 1489 1490 1491 1492 1490 1495 1501 1486 1465 1459 1454 1442 1435 1437 1438 1438 1443 1448 1452 1451 1446 1452 1456 1446 1449 1455 1457 1464 1464 1461 1460 1456 1460 1465 1465 1466 1464 1469 1468 1455 1455 1455 1452 1456 1459 1461 1459 1459 1465 1464 1471 1481 1482 1498 1513 1508 1504 1499 1488 1480 1477 1485 1494 1488 1473 1463 1462 1465 1466 1469 1473 1475 1477 1478 1479 1480 1481 1482 1484
1487 1486 1486 1485 1485 1486 1485 1487 1488 1488 1491 1491 1490 1491 1495 1493 1476 1461 1456 1448 1438 1435 1435 1435 1439 1447 1449 1448 1445 1440 1446 1453 1446 1448 1455 1456 1462 1461 1458 1458 1455 1456 1461 1467 1465 1456 1463 1460 1440 1440 1444 1445 1454 1453 1449 1453 1459 1459 1455 1467 1477 1469 1476 1489 1487 1480 1479 1482 1484 1485 1486 1481 1471 1464 1456 1458 1463 1465 1469 1472 1472 1476 1477 1477 1479 1479 1479 1482
1487 1486 1486 1485 1485 1485 1485 1487 1487 1488 1490 1490 1490 1491 1486 1477 1465 1457 1450 1444 1444 1443 1440 1441 1445 1451 1452 1447 1445 1441 1440 1445 1446 1449 1452 1453 1455 1454 1452 1449 1447 1451 1456 1462 1459 1452 1458 1451 1428 1433 1441 1439 1447 1449 1445 1454 1459 1456 1460 1470 1465 1451 1459 1477 1478 1467 1471 1485 1483 1476 1478 1471 1465 1466 1459 1460 1466 1466 1469 1470 1470 1474 1476 1476 1477 1477 1478 1480
1487 1486 1486 1486 1486 1486 1486 1487 1487 1489 1490 1489 1490 1486 1475 1465 1457 1450 1443 1442 1446 1446 1448 1453 1449 1449 1452 1447 1445 1443 1440 1443 1445 1448 1451 1451 1451 1448 1446 1443 1439 1443 1447 1451 1452 1446 1452 1453 1434 1435 1447 1439 1438 1446 1444 1445 1449 1457 1464 1460 1452 1451 1455 1466 1477 1477 1483 1495 1485 1473 1478 1476 1476 1480 1470 1465 1471 1471 1470 1470 1470 1472 1474 1475 1475 1476 1478 1478
1486 1486 1486 1486 1487 1486 1486 1486 1487 1489 1489 1488 1489 1483 1472 1464 1455 1447 1443 1444 1449 1449 1452 1458 1451 1445 1447 1446 1443 1439 1440 1446 1446 1447 1450 1450 1447 1441 1440 1441 1435 1435 1437 1443 1451 1445 1448 1460 1447 1437 1446 1440 1435 1447 1453 1447 1443 1448 1450 1443 1447 1466 1471 1468 1479 1489 1493 1499 1492 1480 1478 1477 1480 1481 1473 1470 1473 1472 1471 1471 1471 1472 1473 1474 1474 1475 1477 1478
1487 1486 1485 1485 1485 1485 1485 1487 1487 1488 1488 1487 1486 1480 1471 1463 1455 1448 1446 1447 1451 1454 1457 1457 1451 1446 1444 1441 1440 1437 1437 1443 1443 1444 1448 1448 1444 1434 1432 1437 1434 1432 1433 1437 1447 1446 1445 1459 1457 1440 1436 1438 1440 1452 1461 1458 1448 1444 1444 1441 1442 1455 1464 1465 1471 1479 1485 1491 1490 1485 1485 1487 1484 1476 1469 1470 1470 1470 1473 1474 1472 1473 1475 1477 1476 1476 1478 1479
1487 1485 1483 1484 1485 1485 1485 1486 1487 1487 1486 1483 1480 1474 1465 1459 1453 1447 1445 1447 1451 1455 1457 1454 1451 1451 1446 1439 1439 1437 1435 1437 1438 1439 1442 1441 1441 1434 1428 1431 1432 1431 1431 1434 1441 1443 1443 1454 1461 1446 1436 1443 1452 1453 1454 1456 1454 1453 1457 1457 1452 1451 1454 1457 1461 1464 1473 1482 1485 1491 1499 1494 1478 1468 1467 1468 1468 1469 1471 1472 1472 1474 1476 1477 1477 1477 1479 1481
1487 1484 1482 1484 1485 1484 1485 1487 1485 1483 1481 1478 1474 1469 1463 1459 1454 1448 1445 1451 1455 1455 1454 1453 1451 1452 1449 1445 1441 1437 1435 1437 1436 1437 1437 1435 1438 1438 1429 1426 1429 1429 1432 1437 1441 1443 1445 1451 1457 1452 1446 1451 1452 1443 1439 1442 1445 1450 1456 1458 1458 1457 1458 1468 1473 1463 1460 1470 1475 1488 1504 1492 1468 1462 1465 1466 1468 1467 1467 1469 1471 1474 1477 1478 1478 1480 1481 1482
1486 1482 1481 1484 1485 1484 1485 1484 1480 1478 1477 1474 1469 1465 1460 1458 1457 1453 1451 1453 1455 1453 1452 1452 1452 1451 1450 1449 1445 1441 1440 1439 1437 1436 1435 1431 1433 1434 1428 1424 1426 1425 1430 1439 1440 1437 1440 1447 1453 1452 1446 1443 1438 1432 1433 1435 1433 1438 1444 1446 1449 1452 1456 1470 1477 1465 1459 1466 1465 1476 1497 1487 1462 1457 1460 1463 1467 1467 1467 1470 1472 1476 1478 1479 1480 1481 1483 1484
1486 1482 1481 1483 1484 1484 1485 1482 1477 1474 1471 1467 1463 1459 1455 1454 1455 1455 1454 1454 1454 1453 1452 1452 1451 1450 1449 1447 1446 1445 1444 1443 1439 1433 1431 1430 1427 1425 1422 1423 1425 1424 1428 1437 1438 1434 1439 1449 1456 1455 1444 1435 1430 1426 1428 1432 1435 1440 1441 1439 1443 1448 1449 1455 1457 1452 1459 1470 1471 1487 1507 1491 1462 1455 1459 1463 1466 1467 1469 1471 1473 1476 1478 1479 1481 1482 1484 1486
1487 1483 1481 1482 1482 1483 1483 1480 1476 1471 1466 1463 1460 1458 1455 1452 1454 1456 1456 1455 1453 1452 1452 1451 1449 1448 1447 1445 1446 1445 1445 1446 1443 1434 1431 1431 1426 1420 1419 1422 1425 1426 1428 1432 1433 1434 1443 1451 1459 1463 1461 1457 1449 1440 1439 1441 1442 1445 1443 1437 1437 1438 1441 1448 1448 1447 1459 1468 1473 1496 1515 1495 1466 1461 1463 1464 1466 1468 1470 1471 1473 1475 1477 1480 1483 1484 1486 1487
1489 1484 1479 1479 1481 1481 1480 1476 1473 1470 1468 1466 1463 1461 1460 1456 1453 1455 1456 1455 1452 1451 1451 1450 1447 1446 1445 1445 1446 1445 1444 1446 1445 1438 1434 1433 1427 1419 1417 1420 1424 1425 1426 1427 1425 1431 1442 1448 1455 1466 1472 1473 1467 1456 1451 1448 1446 1446 1442 1437 1436 1436 1439 1446 1449 1456 1467 1468 1468 1489 1504 1489 1470 1467 1468 1467 1468 1471 1472 1472 1473 1475 1478 1481 1484 1486 1488 1488
1490 1485 1478 1476 1477 1477 1475 1473 1472 1470 1468 1468 1467 1464 1463 1461 1455 1453 1454 1455 1454 1452 1452 1451 1449 1449 1449 1448 1450 1450 1445 1444 1444 1442 1439 1436 1430 1423 1419 1420 1422 1424 1426 1427 1426 1431 1441 1444 1448 1458 1462 1460 1458 1449 1442 1441 1445 1449 1447 1442 1440 1438 1438 1442 1449 1458 1466 1466 1472 1481 1483 1479 1474 1471 1470 1469 1469 1472 1472 1472 1474 1475 1478 1482 1484 1487 1489 1490
1491 1487 1484 1484 1481 1476 1472 1469 1469 1469 1467 1469 1470 1467 1465 1464 1460 1457 1455 1455 1455 1454 1454 1452 1451 1453 1454 1453 1453 1453 1448 1444 1444 1444 1443 1439 1432 1426 1423 1421 1421 1424 1428 1430 1430 1433 1443 1446 1444 1449 1452 1448 1446 1442 1438 1438 1442 1445 1445 1444 1442 1439 1440 1445 1452 1456 1459 1469 1482 1478 1469 1474 1476 1470 1470 1470 1468 1470 1471 1471 1474 1477 1479 1483 1484 1487 1489 1490
1495 1492 1490 1492 1490 1483 1478 1473 1472 1472 1471 1470 1470 1469 1468 1467 1464 1461 1458 1456 1456 1456 1456 1455 1453 1454 1453 1451 1452 1454 1452 1450 1449 1446 1444 1442 1437 1433 1429 1423 1421 1425 1429 1433 1432 1433 1443 1448 1442 1442 1447 1444 1442 1441 1438 1440 1440 1438 1438 1440 1440 1440 1442 1447 1449 1448 1451 1466 1478 1472 1466 1472 1472 1466 1466 1465 1464 1467 1468 1471 1476 1478 1481 1484 1485 1486 1489 1491
1501 1497 1494 1494 1493 1487 1483 1479 1476 1476 1474 1472 1472 1471 1470 1469 1466 1462 1459 1458 1460 1459 1459 1460 1458 1455 1453 1451 1453 1457 1457 1458 1459 1453 1446 1447 1446 1442 1439 1432 1425 1426 1430 1435 1434 1433 1442 1449 1443 1441 1444 1441 1440 1439 1437 1439 1441 1438 1436 1434 1435 1436 1436 1439 1442 1439 1441 1454 1462 1462 1465 1466 1462 1459 1457 1456 1459 1462 1465 1471 1476 1478 1481 1484 1485 1488 1491 1493
1507 1506 1502 1499 1495 1489 1484 1480 1478 1477 1474 1472 1473 1472 1470 1469 1467 1465 1463 1464 1466 1463 1461 1463 1461 1457 1456 1456 1457 1460 1459 1459 1462 1458 1452 1454 1453 1448 1446 1441 1433 1431 1433 1436 1435 1434 1442 1449 1444 1442 1447 1444 1438 1437 1436 1438 1441 1441 1439 1434 1431 1431 1431 1432 1434 1433 1440 1450 1453 1457 1465 1464 1455 1452 1452 1454 1458 1460 1463 1470 1474 1477 1481 1483 1485 1489 1492 1493
1512 1512 1509 1505 1498 1491 1487 1482 1478 1476 1475 1474 1474 1473 1472 1472 1471 1472 1470 1467 1468 1466 1463 1465 1465 1461 1460 1460 1460 1463 1461 1458 1459 1457 1455 1456 1456 1453 1451 1445 1441 1442 1440 1438 1438 1435 1441 1448 1444 1445 1456 1453 1441 1437 1438 1436 1438 1442 1442 1438 1433 1432 1433 1433 1432 1433 1441 1451 1453 1459 1467 1463 1452 1449 1452 1455 1457 1459 1464 1469 1473 1477 1481 1482 1484 1487 1490 1491
1513 1511 1509 1508 1501 1492 1489 1484 1477 1475 1477 1478 1477 1475 1475 1474 1473 1474 1474 1468 1467 1468 1467 1467 1467 1466 1465 1465 1465 1466 1464 1460 1460 1458 1457 1456 1453 1451 1450 1446 1443 1446 1444 1441 1441 1436 1438 1447 1448 1449 1457 1455 1443 1439 1437 1437 1446 1450 1442 1436 1433 1431 1432 1434 1433 1431 1435 1444 1452 1459 1458 1452 1447 1448 1453 1457 1458 1461 1465 1469 1473 1476 1479 1482 1484 1485 1488 1490